Location: ??? ?????
(30.6482°N, 60.5850°E)
Time: 22:13:49
(UTC+00:00)

CZ-4 R/B - Pass Details

Date: 09 April 2020
Orbit: 532 x 598 km, 97.8° (Epoch: 23 May)

Event Time Altitude Azimuth Distance (km) Brightness Sun altitude
Rises 14:40:45 0° 174° (S) 2,668 4.6 -4.8°
Reaches altitude 10° 14:42:53 10° 177° (S) 1,777 3.8 -5.3°
Maximum altitude 14:46:40 64° 259° (W) 592 1.8 -6.1°
Drops below altitude 10° 14:50:29 10° 341° (NNW) 1,786 4.4 -6.9°
Sets 14:52:37 0° 345° (NNW) 2,682 5.3 -7.3°
